QPF
0.00 0.00 0.01 0.01 0.01 0.01 0.01 0.01 0.01 0.01 0.01 0.01 0.01 0.02 0.03 0.02 0.02 0.02 0.04 0.06 0.06 0.05 0.07 0.12 0.16 0.17 0.14 0.12 0.14 0.14 0.11 0.10 0.11 0.13 0.16 0.19 0.25 0.24 0.21 0.23 0.22 0.17 0.17
0.00 0.00 0.00 0.00 0.00 0.01 0.01 0.02 0.02 0.01 0.01 0.01 0.01 0.01 0.02 0.02 0.02 0.02 0.03 0.06 0.05 0.05 0.06 0.10 0.14 0.16 0.13 0.13 0.15 0.16 0.15 0.12 0.14 0.18 0.22 0.23 0.26 0.28 0.22 0.20 0.17 0.15 0.18
0.00 0.00 0.00 0.00 0.00 0.01 0.01 0.02 0.01 0.01 0.01 0.01 0.01 0.01 0.02 0.03 0.03 0.03 0.02 0.04 0.05 0.05 0.05 0.07 0.10 0.11 0.11 0.11 0.12 0.16 0.18 0.15 0.15 0.19 0.23 0.22 0.27 0.29 0.21 0.19 0.17 0.18 0.19
0.00 0.00 0.00 0.00 0.00 0.01 0.01 0.02 0.01 0.01 0.02 0.02 0.01 0.02 0.03 0.03 0.03 0.04 0.03 0.03 0.05 0.05 0.05 0.05 0.06 0.07 0.07 0.08 0.07 0.11 0.16 0.13 0.14 0.16 0.21 0.22 0.21 0.25 0.22 0.19 0.21 0.24 0.22
0.00 0.00 0.00 0.00 0.00 0.01 0.01 0.01 0.01 0.01 0.02 0.02 0.02 0.02 0.02 0.02 0.03 0.03 0.03 0.04 0.07 0.06 0.04 0.05 0.05 0.05 0.06 0.07 0.09 0.12 0.20 0.14 0.14 0.16 0.17 0.17 0.18 0.20 0.24 0.24 0.23 0.24 0.24
0.00 0.00 0.00 0.00 0.00 0.00 0.01 0.01 0.01 0.01 0.01 0.02 0.02 0.01 0.02 0.01 0.02 0.01 0.02 0.04 0.09 0.08 0.04 0.04 0.04 0.04 0.05 0.10 0.15 0.12 0.20 0.24 0.16 0.13 0.12 0.10 0.12 0.17 0.17 0.22 0.23 0.23 0.26
0.00 0.00 0.00 0.00 0.01 0.01 0.01 0.01 0.01 0.01 0.02 0.02 0.02 0.02 0.01 0.01 0.01 0.01 0.02 0.03 0.04 0.09 0.07 0.05 0.04 0.03 0.03 0.05 0.08 0.09 0.10 0.21 0.19 0.12 0.12 0.12 0.15 0.17 0.15 0.16 0.27 0.23 0.24
0.00 0.00 0.00 0.00 0.00 0.01 0.01 0.01 0.01 0.01 0.01 0.02 0.02 0.01 0.01 0.01 0.01 0.01 0.01 0.02 0.03 0.06 0.12 0.10 0.05 0.03 0.03 0.03 0.04 0.06 0.05 0.08 0.14 0.15 0.11 0.12 0.16 0.18 0.16 0.13 0.20 0.19 0.20
0.00 0.00 0.00 0.00 0.00 0.00 0.01 0.01 0.01 0.01 0.01 0.01 0.01 0.01 0.01 0.01 0.01 0.01 0.01 0.01 0.01 0.02 0.05 0.10 0.12 0.07 0.04 0.03 0.03 0.04 0.04 0.05 0.06 0.07 0.09 0.10 0.10 0.13 0.14 0.12 0.15 0.16 0.17
0.00 0.00 0.00 0.00 0.00 0.00 0.00 0.00 0.01 0.01 0.01 0.01 0.01 0.01 0.01 0.01 0.01 0.01 0.01 0.02 0.03 0.02 0.02 0.03 0.07 0.11 0.08 0.05 0.04 0.04 0.04 0.04 0.03 0.03 0.05 0.07 0.08 0.09 0.10 0.09 0.14 0.15 0.14
0.00 0.00 0.00 0.00 0.00 0.00 0.00 0.00 0.00 0.00 0.00 0.01 0.01 0.01 0.01 0.00 0.01 0.01 0.02 0.03 0.04 0.03 0.04 0.03 0.02 0.05 0.05 0.05 0.04 0.03 0.02 0.02 0.02 0.02 0.04 0.06 0.06 0.07 0.07 0.09 0.16 0.15 0.14
0.00 0.00 0.00 0.00 0.00 0.00 0.00 0.00 0.00 0.00 0.00 0.00 0.01 0.01 0.00 0.00 0.01 0.02 0.02 0.03 0.04 0.06 0.06 0.04 0.03 0.04 0.04 0.02 0.02 0.02 0.01 0.02 0.02 0.02 0.04 0.07 0.06 0.07 0.08 0.10 0.15 0.13 0.12
0.01 0.00 0.00 0.00 0.00 0.00 0.00 0.00 0.00 0.00 0.00 0.00 0.00 0.00 0.00 0.01 0.02 0.02 0.01 0.02 0.02 0.03 0.03 0.03 0.03 0.02 0.02 0.01 0.01 0.01 0.01 0.02 0.02 0.02 0.05 0.07 0.07 0.08 0.09 0.09 0.10 0.10 0.08
0.03 0.02 0.01 0.00 0.00 0.00 0.00 0.00 0.00 0.00 0.00 0.00 0.00 0.00 0.01 0.02 0.02 0.01 0.01 0.01 0.01 0.01 0.01 0.02 0.03 0.02 0.02 0.01 0.01 0.02 0.02 0.02 0.02 0.04 0.07 0.06 0.06 0.06 0.06 0.07 0.08 0.07 0.07
0.03 0.03 0.01 0.01 0.00 0.00 0.01 0.01 0.00 0.01 0.00 0.00 0.00 0.00 0.01 0.02 0.02 0.02 0.02 0.01 0.01 0.01 0.02 0.03 0.04 0.03 0.03 0.02 0.02 0.02 0.03 0.04 0.05 0.05 0.05 0.05 0.04 0.04 0.06 0.08 0.09 0.06 0.07
0.01 0.01 0.01 0.01 0.01 0.00 0.01 0.01 0.00 0.00 0.00 0.00 0.00 0.01 0.02 0.02 0.03 0.03 0.02 0.01 0.01 0.01 0.02 0.03 0.04 0.04 0.03 0.03 0.03 0.03 0.03 0.03 0.04 0.04 0.04 0.05 0.05 0.06 0.06 0.08 0.10 0.09 0.07
0.01 0.01 0.01 0.02 0.01 0.01 0.01 0.01 0.01 0.00 0.00 0.01 0.01 0.03 0.04 0.04 0.04 0.03 0.02 0.01 0.01 0.01 0.02 0.02 0.03 0.04 0.04 0.03 0.03 0.04 0.03 0.03 0.05 0.06 0.05 0.05 0.06 0.06 0.07 0.09 0.09 0.09 0.10
0.01 0.02 0.02 0.03 0.02 0.02 0.02 0.02 0.01 0.01 0.01 0.01 0.02 0.04 0.05 0.05 0.04 0.04 0.03 0.03 0.02 0.02 0.02 0.02 0.02 0.03 0.05 0.07 0.07 0.07 0.06 0.06 0.06 0.09 0.08 0.07 0.08 0.09 0.08 0.08 0.07 0.08 0.12
0.01 0.01 0.03 0.03 0.03 0.03 0.03 0.02 0.02 0.01 0.01 0.02 0.02 0.03 0.04 0.04 0.05 0.04 0.04 0.03 0.03 0.02 0.02 0.03 0.03 0.02 0.03 0.06 0.10 0.10 0.08 0.06 0.05 0.06 0.08 0.08 0.08 0.07 0.06 0.08 0.09 0.08 0.10
0.03 0.03 0.04 0.04 0.05 0.06 0.04 0.02 0.02 0.02 0.02 0.02 0.03 0.04 0.04 0.03 0.03 0.04 0.05 0.06 0.06 0.05 0.04 0.04 0.03 0.02 0.02 0.03 0.04 0.05 0.04 0.03 0.02 0.03 0.05 0.07 0.08 0.07 0.07 0.08 0.09 0.08 0.09
0.04 0.05 0.07 0.07 0.08 0.06 0.05 0.03 0.02 0.02 0.03 0.05 0.08 0.08 0.06 0.04 0.05 0.05 0.06 0.07 0.06 0.05 0.04 0.03 0.03 0.02 0.02 0.01 0.01 0.01 0.01 0.01 0.01 0.01 0.02 0.06 0.10 0.09 0.11 0.14 0.13 0.08 0.06
0.04 0.05 0.06 0.07 0.09 0.07 0.04 0.03 0.03 0.04 0.06 0.08 0.09 0.07 0.06 0.04 0.04 0.05 0.06 0.05 0.05 0.04 0.02 0.02 0.01 0.01 0.01 0.01 0.01 0.01 0.01 0.01 0.01 0.01 0.02 0.09 0.10 0.12 0.12 0.13 0.15 0.09 0.06
0.04 0.04 0.03 0.04 0.04 0.03 0.03 0.03 0.04 0.06 0.06 0.06 0.05 0.05 0.05 0.06 0.07 0.07 0.05 0.04 0.05 0.05 0.03 0.01 0.01 0.01 0.01 0.01 0.01 0.01 0.01 0.01 0.01 0.01 0.02 0.06 0.10 0.12 0.10 0.08 0.08 0.06 0.04
0.04 0.04 0.04 0.04 0.05 0.05 0.04 0.05 0.04 0.05 0.04 0.03 0.03 0.04 0.03 0.05 0.06 0.05 0.03 0.04 0.05 0.04 0.03 0.01 0.01 0.01 0.01 0.02 0.02 0.03 0.04 0.04 0.03 0.03 0.03 0.04 0.05 0.09 0.10 0.10 0.06 0.05 0.04
0.04 0.03 0.03 0.04 0.06 0.07 0.08 0.06 0.05 0.03 0.02 0.02 0.02 0.01 0.02 0.03 0.02 0.02 0.02 0.04 0.04 0.03 0.03 0.03 0.01 0.01 0.01 0.01 0.02 0.03 0.03 0.04 0.03 0.03 0.02 0.02 0.02 0.03 0.05 0.10 0.08 0.05 0.05
0.04 0.03 0.03 0.03 0.03 0.04 0.05 0.04 0.04 0.03 0.03 0.03 0.02 0.02 0.03 0.02 0.02 0.03 0.02 0.01 0.02 0.02 0.03 0.03 0.03 0.01 0.01 0.01 0.01 0.00 0.01 0.01 0.02 0.02 0.02 0.02 0.01 0.02 0.03 0.06 0.08 0.06 0.05
MSLP
1011.84 1011.53 1011.39 1011.44 1011.62 1011.87 1012.12 1012.31 1012.43 1012.47 1012.46 1012.46 1012.50 1012.61 1012.79 1013.05 1013.34 1013.63 1013.90 1014.12 1014.29 1014.42 1014.52 1014.62 1014.73 1014.85 1014.99 1015.14 1015.30 1015.46 1015.61 1015.76 1015.91 1016.07 1016.22 1016.37 1016.53 1016.68 1016.82 1016.97 1017.12 1017.28 1017.46
1011.73 1011.54 1011.52 1011.65 1011.89 1012.16 1012.41 1012.58 1012.68 1012.70 1012.70 1012.71 1012.78 1012.93 1013.17 1013.46 1013.77 1014.07 1014.32 1014.52 1014.67 1014.78 1014.87 1014.97 1015.08 1015.20 1015.34 1015.49 1015.63 1015.76 1015.90 1016.03 1016.17 1016.32 1016.49 1016.66 1016.82 1016.98 1017.12 1017.25 1017.39 1017.53 1017.68
1011.57 1011.52 1011.61 1011.82 1012.12 1012.42 1012.69 1012.87 1012.97 1013.01 1013.02 1013.07 1013.18 1013.37 1013.62 1013.92 1014.23 1014.50 1014.71 1014.87 1014.98 1015.07 1015.15 1015.24 1015.36 1015.49 1015.63 1015.77 1015.89 1016.00 1016.12 1016.24 1016.38 1016.55 1016.73 1016.93 1017.11 1017.28 1017.43 1017.55 1017.67 1017.79 1017.93
1011.40 1011.47 1011.66 1011.96 1012.32 1012.67 1012.96 1013.17 1013.30 1013.37 1013.42 1013.51 1013.65 1013.86 1014.13 1014.41 1014.68 1014.90 1015.06 1015.17 1015.24 1015.31 1015.38 1015.48 1015.61 1015.75 1015.89 1016.01 1016.12 1016.21 1016.30 1016.41 1016.56 1016.74 1016.96 1017.18 1017.40 1017.59 1017.74 1017.87 1017.97 1018.07 1018.20
1011.27 1011.44 1011.71 1012.08 1012.49 1012.89 1013.22 1013.46 1013.62 1013.73 1013.83 1013.96 1014.14 1014.36 1014.62 1014.88 1015.10 1015.27 1015.38 1015.44 1015.48 1015.53 1015.61 1015.73 1015.87 1016.02 1016.16 1016.27 1016.35 1016.42 1016.49 1016.58 1016.73 1016.93 1017.17 1017.43 1017.67 1017.88 1018.05 1018.17 1018.26 1018.35 1018.47
1011.23 1011.46 1011.79 1012.21 1012.66 1013.08 1013.43 1013.70 1013.90 1014.05 1014.19 1014.36 1014.56 1014.80 1015.06 1015.29 1015.47 1015.60 1015.66 1015.70 1015.73 1015.78 1015.88 1016.01 1016.17 1016.33 1016.47 1016.56 1016.61 1016.65 1016.69 1016.77 1016.91 1017.12 1017.38 1017.65 1017.92 1018.14 1018.31 1018.43 1018.51 1018.59 1018.70
1011.30 1011.56 1011.92 1012.35 1012.81 1013.23 1013.59 1013.88 1014.09 1014.27 1014.45 1014.65 1014.88 1015.13 1015.39 1015.61 1015.77 1015.87 1015.92 1015.95 1015.98 1016.05 1016.17 1016.34 1016.52 1016.69 1016.81 1016.89 1016.91 1016.91 1016.92 1016.98 1017.10 1017.31 1017.57 1017.86 1018.13 1018.35 1018.51 1018.62 1018.69 1018.75 1018.84
1011.49 1011.75 1012.11 1012.53 1012.96 1013.36 1013.71 1013.98 1014.19 1014.38 1014.58 1014.80 1015.06 1015.33 1015.60 1015.82 1015.99 1016.09 1016.15 1016.19 1016.25 1016.35 1016.49 1016.68 1016.88 1017.05 1017.17 1017.22 1017.22 1017.19 1017.17 1017.20 1017.31 1017.50 1017.75 1018.03 1018.29 1018.50 1018.65 1018.73 1018.77 1018.82 1018.89
1011.75 1012.00 1012.34 1012.73 1013.12 1013.48 1013.79 1014.02 1014.22 1014.40 1014.60 1014.84 1015.12 1015.42 1015.71 1015.96 1016.14 1016.27 1016.35 1016.41 1016.50 1016.63 1016.80 1017.00 1017.21 1017.39 1017.50 1017.54 1017.52 1017.46 1017.42 1017.43 1017.51 1017.68 1017.91 1018.17 1018.41 1018.59 1018.71 1018.76 1018.78 1018.80 1018.86
1012.04 1012.28 1012.59 1012.95 1013.30 1013.61 1013.86 1014.06 1014.22 1014.38 1014.58 1014.83 1015.12 1015.44 1015.76 1016.03 1016.25 1016.41 1016.51 1016.61 1016.72 1016.86 1017.05 1017.26 1017.48 1017.65 1017.76 1017.79 1017.76 1017.70 1017.65 1017.64 1017.71 1017.86 1018.06 1018.28 1018.49 1018.65 1018.73 1018.76 1018.75 1018.74 1018.78
1012.28 1012.52 1012.82 1013.16 1013.47 1013.74 1013.94 1014.10 1014.23 1014.37 1014.56 1014.80 1015.11 1015.45 1015.78 1016.09 1016.33 1016.52 1016.65 1016.77 1016.89 1017.04 1017.23 1017.44 1017.64 1017.82 1017.93 1017.96 1017.94 1017.89 1017.84 1017.83 1017.89 1018.01 1018.19 1018.38 1018.56 1018.68 1018.74 1018.75 1018.72 1018.69 1018.71
1012.41 1012.67 1012.98 1013.31 1013.61 1013.85 1014.04 1014.16 1014.27 1014.40 1014.57 1014.82 1015.13 1015.47 1015.83 1016.15 1016.42 1016.62 1016.77 1016.89 1017.01 1017.15 1017.33 1017.52 1017.72 1017.89 1018.00 1018.06 1018.06 1018.02 1017.99 1017.99 1018.04 1018.15 1018.30 1018.46 1018.61 1018.71 1018.76 1018.75 1018.71 1018.68 1018.69
1012.38 1012.67 1013.01 1013.36 1013.67 1013.92 1014.10 1014.23 1014.33 1014.45 1014.63 1014.87 1015.18 1015.53 1015.89 1016.22 1016.50 1016.71 1016.87 1016.99 1017.10 1017.22 1017.37 1017.55 1017.73 1017.89 1018.02 1018.09 1018.12 1018.12 1018.10 1018.11 1018.16 1018.25 1018.37 1018.51 1018.64 1018.73 1018.77 1018.78 1018.75 1018.73 1018.74
1012.17 1012.51 1012.88 1013.26 1013.60 1013.88 1014.09 1014.24 1014.37 1014.51 1014.69 1014.94 1015.24 1015.59 1015.95 1016.28 1016.56 1016.78 1016.94 1017.05 1017.16 1017.26 1017.40 1017.55 1017.72 1017.88 1018.02 1018.11 1018.16 1018.18 1018.19 1018.20 1018.23 1018.30 1018.40 1018.51 1018.62 1018.71 1018.77 1018.80 1018.81 1018.81 1018.84
1011.81 1012.17 1012.57 1012.98 1013.36 1013.69 1013.94 1014.15 1014.32 1014.49 1014.70 1014.96 1015.26 1015.61 1015.96 1016.29 1016.57 1016.80 1016.96 1017.08 1017.19 1017.29 1017.41 1017.56 1017.72 1017.88 1018.02 1018.13 1018.20 1018.24 1018.25 1018.25 1018.27 1018.30 1018.36 1018.45 1018.54 1018.63 1018.71 1018.78 1018.83 1018.88 1018.93
1011.33 1011.69 1012.10 1012.52 1012.94 1013.31 1013.63 1013.90 1014.14 1014.36 1014.60 1014.87 1015.18 1015.51 1015.86 1016.18 1016.47 1016.71 1016.90 1017.05 1017.17 1017.30 1017.43 1017.58 1017.75 1017.91 1018.06 1018.18 1018.26 1018.29 1018.29 1018.27 1018.25 1018.24 1018.25 1018.30 1018.37 1018.46 1018.56 1018.67 1018.77 1018.86 1018.95
1010.81 1011.12 1011.50 1011.93 1012.36 1012.78 1013.17 1013.51 1013.81 1014.09 1014.36 1014.65 1014.96 1015.28 1015.61 1015.93 1016.23 1016.49 1016.72 1016.91 1017.08 1017.25 1017.42 1017.60 1017.78 1017.96 1018.12 1018.24 1018.31 1018.34 1018.31 1018.26 1018.19 1018.13 1018.09 1018.08 1018.12 1018.20 1018.31 1018.45 1018.59 1018.72 1018.84
1010.29 1010.54 1010.87 1011.26 1011.70 1012.16 1012.60 1013.01 1013.38 1013.71 1014.02 1014.31 1014.60 1014.90 1015.21 1015.52 1015.83 1016.12 1016.39 1016.64 1016.88 1017.11 1017.34 1017.56 1017.78 1017.98 1018.15 1018.28 1018.35 1018.37 1018.32 1018.23 1018.11 1017.99 1017.89 1017.83 1017.83 1017.88 1017.99 1018.13 1018.29 1018.45 1018.58
1009.83 1009.99 1010.25 1010.62 1011.05 1011.53 1012.03 1012.50 1012.92 1013.30 1013.62 1013.91 1014.17 1014.43 1014.70 1014.98 1015.28 1015.59 1015.90 1016.22 1016.53 1016.84 1017.14 1017.42 1017.69 1017.93 1018.13 1018.27 1018.35 1018.36 1018.30 1018.19 1018.03 1017.86 1017.71 1017.59 1017.54 1017.55 1017.63 1017.76 1017.92 1018.07 1018.21
1009.43 1009.53 1009.74 1010.07 1010.50 1011.01 1011.55 1012.07 1012.54 1012.94 1013.26 1013.52 1013.73 1013.93 1014.13 1014.36 1014.63 1014.94 1015.28 1015.65 1016.03 1016.41 1016.78 1017.14 1017.47 1017.76 1018.00 1018.18 1018.29 1018.32 1018.27 1018.15 1017.98 1017.78 1017.59 1017.43 1017.33 1017.29 1017.32 1017.41 1017.53 1017.66 1017.77
1009.09 1009.16 1009.35 1009.67 1010.12 1010.66 1011.24 1011.81 1012.32 1012.73 1013.04 1013.24 1013.38 1013.49 1013.59 1013.74 1013.95 1014.22 1014.57 1014.96 1015.39 1015.83 1016.27 1016.70 1017.09 1017.44 1017.74 1017.97 1018.13 1018.21 1018.21 1018.12 1017.97 1017.78 1017.58 1017.39 1017.24 1017.14 1017.11 1017.14 1017.20 1017.27 1017.34
1008.78 1008.87 1009.09 1009.45 1009.94 1010.53 1011.16 1011.77 1012.30 1012.72 1012.99 1013.14 1013.18 1013.17 1013.17 1013.20 1013.32 1013.52 1013.83 1014.22 1014.66 1015.14 1015.63 1016.11 1016.56 1016.97 1017.34 1017.65 1017.89 1018.04 1018.11 1018.10 1018.01 1017.85 1017.66 1017.46 1017.28 1017.14 1017.04 1016.99 1016.97 1016.97 1016.97
1008.46 1008.64 1008.94 1009.37 1009.93 1010.59 1011.28 1011.93 1012.49 1012.90 1013.14 1013.22 1013.16 1013.04 1012.90 1012.80 1012.80 1012.91 1013.14 1013.48 1013.91 1014.39 1014.90 1015.42 1015.92 1016.40 1016.83 1017.22 1017.55 1017.81 1017.98 1018.06 1018.06 1017.97 1017.82 1017.64 1017.44 1017.25 1017.09 1016.96 1016.86 1016.78 1016.70
1008.11 1008.42 1008.84 1009.38 1010.04 1010.78 1011.53 1012.23 1012.82 1013.23 1013.44 1013.45 1013.31 1013.07 1012.80 1012.58 1012.44 1012.43 1012.57 1012.84 1013.21 1013.67 1014.17 1014.70 1015.24 1015.76 1016.26 1016.73 1017.15 1017.51 1017.79 1017.98 1018.07 1018.07 1017.99 1017.84 1017.65 1017.44 1017.23 1017.03 1016.84 1016.68 1016.52
1007.72 1008.19 1008.75 1009.42 1010.18 1011.00 1011.82 1012.57 1013.19 1013.61 1013.80 1013.77 1013.56 1013.23 1012.86 1012.51 1012.25 1012.13 1012.16 1012.34 1012.64 1013.05 1013.52 1014.04 1014.59 1015.14 1015.69 1016.22 1016.71 1017.16 1017.54 1017.83 1018.02 1018.11 1018.09 1017.99 1017.82 1017.60 1017.36 1017.10 1016.85 1016.61 1016.38
1007.32 1007.95 1008.65 1009.42 1010.28 1011.17 1012.05 1012.85 1013.49 1013.93 1014.13 1014.09 1013.85 1013.46 1013.02 1012.58 1012.23 1012.00 1011.93 1012.02 1012.25 1012.60 1013.03 1013.52 1014.05 1014.61 1015.18 1015.74 1016.28 1016.79 1017.23 1017.60 1017.87 1018.03 1018.07 1018.02 1017.88 1017.67 1017.42 1017.14 1016.84 1016.55 1016.26
Thickness
5784 5785 5783 5781 5780 5778 5777 5777 5776 5776 5775 5775 5774 5774 5773 5772 5770 5769 5768 5768 5767 5767 5767 5767 5767 5768 5768 5767 5767 5767 5766 5766 5765 5764 5763 5762 5761 5760 5758 5757 5756 5754 5753
5788 5786 5783 5781 5779 5777 5776 5775 5775 5774 5774 5773 5773 5772 5771 5770 5769 5768 5767 5766 5766 5766 5765 5765 5765 5765 5765 5765 5765 5765 5764 5764 5764 5763 5762 5761 5760 5758 5757 5756 5754 5753 5752
5789 5786 5783 5781 5778 5777 5776 5775 5774 5773 5772 5772 5771 5770 5769 5768 5767 5766 5765 5765 5764 5764 5763 5763 5762 5762 5762 5762 5762 5763 5763 5762 5762 5761 5760 5759 5758 5757 5756 5755 5754 5752 5750
5788 5785 5783 5780 5778 5776 5775 5774 5773 5772 5771 5770 5769 5769 5767 5766 5765 5765 5764 5763 5762 5762 5761 5761 5761 5760 5760 5760 5760 5760 5760 5759 5759 5759 5757 5756 5756 5755 5754 5753 5752 5751 5749
5787 5784 5782 5779 5777 5775 5774 5773 5771 5770 5769 5769 5768 5767 5766 5765 5764 5763 5763 5762 5761 5760 5759 5759 5759 5758 5758 5758 5758 5757 5758 5757 5757 5756 5755 5754 5754 5753 5752 5752 5751 5749 5748
5786 5783 5781 5778 5776 5774 5773 5771 5770 5769 5768 5767 5766 5765 5764 5763 5763 5762 5761 5760 5759 5758 5757 5757 5757 5756 5756 5756 5755 5755 5756 5755 5755 5754 5753 5753 5752 5752 5751 5751 5750 5748 5746
5784 5782 5779 5777 5775 5773 5772 5770 5769 5767 5766 5765 5764 5763 5762 5762 5762 5761 5760 5759 5758 5757 5756 5755 5755 5754 5754 5754 5753 5754 5754 5753 5753 5752 5751 5751 5750 5750 5750 5749 5749 5747 5745
5784 5781 5778 5776 5774 5773 5771 5769 5767 5766 5765 5763 5762 5761 5761 5760 5760 5760 5758 5757 5756 5756 5755 5754 5753 5752 5752 5752 5752 5752 5751 5751 5750 5750 5749 5748 5748 5748 5748 5747 5747 5746 5743
5782 5779 5777 5775 5773 5771 5770 5768 5766 5765 5763 5762 5761 5760 5759 5759 5758 5758 5757 5756 5755 5754 5753 5752 5752 5751 5750 5750 5749 5749 5749 5749 5748 5748 5747 5746 5746 5746 5746 5746 5745 5744 5742
5780 5778 5775 5773 5772 5770 5768 5767 5765 5763 5762 5761 5760 5759 5757 5757 5756 5756 5755 5754 5753 5753 5752 5751 5750 5749 5748 5748 5748 5747 5747 5747 5746 5746 5745 5745 5745 5745 5744 5744 5743 5742 5740
5777 5776 5774 5772 5770 5769 5767 5765 5764 5762 5760 5759 5758 5757 5756 5755 5754 5753 5752 5752 5751 5750 5750 5749 5748 5747 5747 5746 5746 5746 5745 5744 5744 5744 5744 5743 5743 5743 5743 5742 5741 5740 5739
5774 5774 5773 5771 5769 5767 5766 5765 5763 5760 5759 5757 5756 5755 5754 5753 5752 5751 5750 5749 5749 5748 5748 5747 5746 5745 5745 5744 5743 5743 5743 5742 5742 5742 5742 5741 5741 5741 5741 5740 5739 5738 5737
5775 5774 5772 5770 5768 5766 5764 5763 5761 5759 5757 5756 5754 5753 5752 5751 5750 5749 5748 5747 5746 5746 5745 5745 5744 5743 5743 5742 5741 5741 5740 5740 5740 5740 5740 5740 5740 5739 5739 5738 5737 5736 5735
5775 5773 5772 5770 5768 5765 5763 5761 5759 5758 5755 5754 5753 5751 5750 5749 5748 5747 5746 5745 5744 5744 5743 5742 5742 5741 5740 5740 5739 5739 5738 5738 5738 5738 5738 5738 5738 5737 5737 5736 5735 5735 5734
5774 5773 5772 5770 5767 5765 5762 5760 5758 5756 5754 5753 5751 5750 5749 5747 5746 5745 5744 5743 5743 5742 5741 5740 5739 5739 5738 5737 5737 5737 5736 5736 5736 5735 5736 5736 5736 5735 5735 5734 5734 5733 5732
5775 5773 5772 5770 5767 5765 5762 5759 5757 5755 5753 5752 5750 5749 5747 5746 5744 5743 5742 5741 5740 5739 5739 5737 5737 5736 5736 5735 5735 5734 5734 5733 5733 5733 5733 5733 5733 5733 5733 5732 5731 5731 5730
5776 5774 5772 5770 5767 5764 5761 5758 5756 5754 5752 5751 5749 5748 5747 5745 5743 5741 5740 5739 5739 5738 5737 5735 5734 5734 5733 5733 5732 5732 5732 5731 5730 5730 5730 5730 5730 5730 5730 5729 5729 5729 5728
5775 5772 5771 5769 5765 5762 5759 5757 5755 5752 5750 5749 5748 5747 5746 5744 5742 5740 5738 5737 5737 5736 5734 5733 5731 5730 5729 5729 5729 5729 5729 5728 5728 5728 5727 5727 5727 5727 5727 5727 5727 5726 5725
5774 5771 5768 5766 5764 5761 5757 5754 5752 5750 5748 5747 5746 5745 5743 5742 5740 5738 5736 5735 5734 5733 5731 5730 5728 5727 5726 5725 5725 5725 5725 5725 5725 5725 5724 5724 5724 5724 5723 5724 5723 5723 5723
5773 5770 5767 5764 5761 5758 5754 5751 5749 5747 5745 5744 5743 5742 5741 5739 5738 5737 5735 5732 5731 5730 5728 5726 5724 5724 5723 5722 5722 5721 5721 5721 5721 5721 5721 5721 5720 5720 5720 5719 5720 5720 5720
5771 5767 5764 5761 5758 5755 5751 5747 5743 5741 5741 5740 5739 5739 5738 5737 5736 5734 5732 5730 5728 5726 5724 5723 5721 5719 5718 5718 5717 5715 5716 5717 5717 5717 5716 5716 5716 5716 5716 5715 5715 5716 5716
5768 5765 5762 5759 5756 5754 5751 5747 5743 5740 5738 5737 5736 5736 5735 5734 5733 5731 5730 5727 5725 5723 5720 5719 5717 5715 5714 5714 5711 5708 5705 5707 5711 5712 5712 5711 5711 5711 5712 5711 5711 5711 5711
5765 5765 5763 5757 5754 5751 5749 5745 5741 5737 5734 5732 5731 5731 5731 5730 5729 5728 5727 5725 5722 5720 5717 5715 5714 5712 5710 5709 5708 5705 5701 5698 5700 5704 5705 5706 5705 5706 5707 5707 5707 5707 5707
5764 5763 5760 5755 5752 5748 5745 5742 5738 5733 5729 5728 5727 5727 5728 5727 5726 5725 5723 5721 5719 5716 5714 5712 5711 5709 5707 5704 5703 5702 5701 5699 5695 5694 5698 5700 5701 5701 5702 5702 5702 5703 5703
5760 5758 5756 5752 5748 5745 5742 5738 5734 5731 5728 5726 5724 5723 5723 5723 5722 5721 5720 5717 5715 5712 5710 5709 5707 5706 5704 5701 5699 5697 5696 5695 5693 5691 5690 5692 5694 5696 5697 5697 5698 5698 5699
5755 5752 5750 5747 5743 5741 5737 5733 5730 5727 5724 5721 5719 5718 5718 5718 5718 5717 5715 5713 5711 5709 5707 5706 5704 5702 5700 5698 5696 5695 5693 5691 5689 5688 5686 5686 5687 5690 5692 5693 5694 5694 5695